COSMOS 1624

Satellite information

Favourite Embed

Satellite Type and Status

PAYLOADIN ORBIT

Key statistics

Satellite COSMOS 1624 at a glance.

Uptime

14882

Days in orbit

Revolutions

≈ 14.3

Per day

Orbit

LEO

Low Earth Orbit

Inclination

74.0

Latest

Satellite identification and parameters

Extended collection of information and parameters for COSMOS 1624.

Object identification

Identified? True

Debris? False

Object name: COSMOS 1624

International designator: 1985-006A

Object number (NORAD): 15482

Object ID (CCSDS): 15482

Country: COMMONWEALTH OF INDEPENDENT STATES (CIS)

Current information (Y/N): Y

RCS size: LARGE

Orbital parameters

Period: 100.428 minutes

Inclination: 74.0398 deg

SMA: 7156.965 km

Apoapsis: 789.794 km

Periapsis: 767.865 km

RAAN: 280.7522 deg

Eccentricy: 0.00153201

Argument of periapsis: 226.7069 deg

Mean anomaly: 306.1896 deg

Mean motion: 14.33868948 rev/day

Mean motion (dot): 0.00000238 rev/day2

B* drag term: 0.000094646744 1/REarth

Two-line elements (TLE)

Creation date: Oct. 16, 2025, 2:37 a.m.

Reference frame: TEME

Reference center: EARTH

Epoch: Oct. 15, 2025, 5:52 p.m. UTC

TLE line 0: 0 COSMOS 1624

TLE line 1: 1 15482U 85006A 25288.74470677 .00000238 00000-0 94647-4 0 9993

TLE line 2: 2 15482 74.0398 280.7522 0015320 226.7069 306.1896 14.33868948129225

Live tracking on map

Real-time ground track for satellite COSMOS 1624.

In-orbit conjunctions

A list of the most updated potential collisions computed for object COSMOS 1624.

Target Orbit TCA Probability of collision Miss distance Type
CZ-6A DEB LEO 2025-06-16 13:53:09 0.0004269612 476.0 (m) DEBRIS
COSMOS 1275 DEB LEO 2025-05-21 01:37:06 0.0008152935 805.0 (m) DEBRIS
NOAA 16 DEB SSO 2025-01-18 23:41:17 0.0002290846 494.0 (m) DEBRIS
DMSP 5D-2 F13 DEB SSO 2025-01-08 09:20:22 0.0001397668 417.0 (m) DEBRIS
CZ-6A DEB SSO 2025-01-01 10:38:48 0.0002375919 349.0 (m) DEBRIS

Associated space launch

Military communications satellite

COSMOS 1624 was lifted into orbit during the mission ‘Kosmos-3M | Strela-2M 36’, on board a Kosmos-3M space rocket.

The launch took place on Jan. 17, 1985, 5:46 p.m. from 132/1 (132L).

For more information about the launch, click the button.

Launch to space Kosmos-3M | Strela-2M 36
Kosmos-3M | Strela-2M 36

Agency: N/A

Status: Launch Successful

Launch date: Jan. 17, 1985, 5:46 p.m. UTC

Rocket: Kosmos-3M

Launch pad: 132/1 (132L)

Location: Plesetsk Cosmodrome, Russian Federation

...

Latest news about this satellite

There are no fresh news available about this satellite. Check back as we update our databases every day.


Newsletter sign-up

Weekly statistics, charts and insights to help you stay on top of the space industry.